Change the Weather History Date:

Saturday, February 2, 2013

  Actual Average Record
Temperature  
Mean Temperature 2 °F -  
Max Temperature 12 °F 22 °F 39 °F (2005)
Min Temperature -7 °F 5 °F -20 °F (2011)
Degree Days  
Heating Degree Days 62    
Moisture  
Dew Point -2 °F    
Average Humidity 83    
Maximum Humidity 92    
Minimum Humidity 72    
Precipitation  
Precipitation 0.00 in - - ()
Sea Level Pressure  
Sea Level Pressure 30.05 in    
Wind  
Wind Speed 7 mph (WNW)    
Max Wind Speed 28 mph    
Max Gust Speed 36 mph    
Visibility 8 miles    
Events Snow    
Averages and records for this station are not official NWS values.
T = Trace of Precipitation, MM = Missing Value Source: NWS Daily Summary

Daily Weather History Graph

Daily Weather History Graph

Search for Another Location

Airport or City:

Trip Planner

Search our weather history database for the weather conditions in past years. The results will help you decide how hot, cold, wet, or windy it might be!

Date:

Astronomy

Feb. 02, 2013 Rise Set
Actual Time 7:43 AM CST 5:32 PM CST
Civil Twilight 7:12 AM CST 6:03 PM CST
Nautical Twilight 6:36 AM CST 6:39 PM CST
Astronomical Twilight 6:01 AM CST 7:14 PM CST
Moon 12:01 AM CST (2/2) 10:31 AM CST (2/2)
Length of Visible Light 10h 51m
Length of Day
9h 48m
Waning Gibbous, 59% of the Moon is Illuminated
Feb 2
Waning Gibbous
Feb 3
Last Quarter
Feb 10
New
Feb 17
First Quarter
Feb 25
Full

Hourly Weather History & Observations

Time (CST) Temp. Windchill Dew Point Humidity Pressure Visibility Wind Dir Wind Speed Gust Speed Precip Events Conditions
12:13 AM 1.4 °F -8.3 °F -2.2 °F 85% 30.06 in 10.0 mi NNW 4.6 mph - N/A   Clear
12:53 AM -0.4 °F -10.4 °F -4.0 °F 85% 30.06 in 10.0 mi NNW 4.6 mph - N/A   Clear
1:13 AM -2.2 °F -12.5 °F -5.8 °F 85% 30.07 in 7.0 mi NNW 4.6 mph - N/A   Clear
1:53 AM -5.8 °F -16.7 °F -9.4 °F 84% 30.08 in 10.0 mi NW 4.6 mph - N/A   Clear
2:13 AM -2.2 °F -12.5 °F -7.6 °F 78% 30.10 in 10.0 mi NNW 4.6 mph - N/A   Clear
2:33 AM -5.8 °F -14.5 °F -9.4 °F 84% 30.11 in 7.0 mi NW 3.5 mph - N/A   Clear
2:53 AM -5.8 °F -16.7 °F -9.4 °F 84% 30.11 in 10.0 mi NW 4.6 mph - N/A   Mostly Cloudy
3:13 AM -2.2 °F -14.2 °F -7.6 °F 78% 30.11 in 10.0 mi NNW 5.8 mph - N/A   Overcast
3:33 AM -2.2 °F -14.2 °F -5.8 °F 85% 30.11 in 10.0 mi NNW 5.8 mph - N/A   Overcast
3:53 AM -2.2 °F -15.6 °F -5.8 °F 85% 30.12 in 10.0 mi NNW 6.9 mph - N/A   Overcast
4:13 AM -2.2 °F -15.6 °F -5.8 °F 85% 30.12 in 10.0 mi NNW 6.9 mph - N/A   Overcast
4:33 AM -2.2 °F -16.8 °F -5.8 °F 85% 30.13 in 10.0 mi NNW 8.1 mph - N/A   Overcast
4:53 AM -2.2 °F -15.6 °F -7.6 °F 78% 30.13 in 10.0 mi NNW 6.9 mph - N/A   Mostly Cloudy
5:13 AM -5.8 °F -18.4 °F -9.4 °F 84% 30.13 in 10.0 mi NNW 5.8 mph - N/A   Scattered Clouds
5:33 AM -5.8 °F -18.4 °F -9.4 °F 84% 30.14 in 10.0 mi NNW 5.8 mph - N/A   Clear
5:53 AM -5.8 °F -18.4 °F -9.4 °F 84% 30.14 in 10.0 mi NNW 5.8 mph - N/A   Clear
6:13 AM -7.6 °F -18.8 °F -11.2 °F 84% 30.14 in 10.0 mi NNW 4.6 mph - N/A   Clear
6:33 AM -7.6 °F -16.5 °F -11.2 °F 84% 30.14 in 10.0 mi NNW 3.5 mph - N/A   Clear
6:53 AM -7.6 °F -18.8 °F -9.4 °F 92% 30.13 in 10.0 mi NNW 4.6 mph - N/A   Clear
7:13 AM -7.6 °F - -11.2 °F 84% 30.14 in 10.0 mi Calm Calm - N/A   Clear
7:33 AM -7.6 °F - -11.2 °F 84% 30.13 in 10.0 mi Calm Calm - N/A   Clear
7:53 AM -7.6 °F - -11.2 °F 84% 30.13 in 10.0 mi Calm Calm - N/A   Clear
8:13 AM -5.8 °F - -9.4 °F 84% 30.13 in 10.0 mi Calm Calm - N/A   Clear
8:33 AM -5.8 °F - -9.4 °F 84% 30.14 in 10.0 mi Calm Calm - N/A   Clear
8:53 AM -5.8 °F - -9.4 °F 84% 30.13 in 10.0 mi Calm Calm - N/A   Clear
9:13 AM -4.0 °F - -7.6 °F 85% 30.13 in 10.0 mi Calm Calm - N/A   Clear
9:33 AM -2.2 °F - -7.6 °F 78% 30.13 in 10.0 mi Calm Calm - N/A   Scattered Clouds
9:53 AM -2.2 °F - -5.8 °F 85% 30.13 in 10.0 mi Calm Calm - N/A   Mostly Cloudy
10:13 AM -0.4 °F - -5.8 °F 78% 30.13 in 10.0 mi Calm Calm - N/A   Overcast
10:53 AM 1.4 °F -6.2 °F -2.2 °F 85% 30.12 in 10.0 mi SSE 3.5 mph - N/A   Mostly Cloudy
11:13 AM 1.4 °F -6.2 °F -2.2 °F 85% 30.12 in 10.0 mi South 3.5 mph - N/A   Scattered Clouds
11:33 AM 3.2 °F -9.1 °F -0.4 °F 85% 30.12 in 4.0 mi South 6.9 mph - N/A   Clear
11:53 AM 3.2 °F -10.3 °F -0.4 °F 85% 30.09 in 7.0 mi South 8.1 mph - N/A   Scattered Clouds
12:13 PM 3.2 °F -12.2 °F -0.4 °F 85% 30.07 in 7.0 mi South 10.4 mph - N/A   Clear
12:33 PM 3.2 °F -12.2 °F -0.4 °F 85% 30.05 in 10.0 mi South 10.4 mph - N/A   Clear
12:53 PM 5.0 °F -10.0 °F -0.4 °F 78% 30.05 in 10.0 mi South 10.4 mph - N/A   Mostly Cloudy
1:13 PM 5.0 °F -10.0 °F -0.4 °F 78% 30.03 in 10.0 mi South 10.4 mph - N/A   Overcast
1:33 PM 6.8 °F -7.8 °F -0.4 °F 72% 30.02 in 10.0 mi South 10.4 mph - N/A   Overcast
1:53 PM 6.8 °F -8.6 °F -0.4 °F 72% 30.00 in 10.0 mi SSE 11.5 mph - N/A   Overcast
2:13 PM 6.8 °F -8.6 °F 1.4 °F 79% 30.00 in 4.0 mi South 11.5 mph - N/A Snow Light Snow
2:33 PM 6.8 °F -8.6 °F 1.4 °F 79% 29.98 in 1.0 mi SSE 11.5 mph - N/A Snow Light Snow
2:53 PM 6.8 °F -10.0 °F 1.4 °F 79% 29.96 in 2.0 mi SSE 13.8 mph - N/A Snow Light Snow
3:13 PM 6.8 °F -10.7 °F 3.2 °F 85% 29.95 in 4.0 mi SSE 15.0 mph - N/A Snow Light Snow
3:33 PM 8.6 °F -7.7 °F 3.2 °F 79% 29.95 in 1.2 mi SSE 13.8 mph - N/A Snow Light Snow
3:53 PM 8.6 °F -7.0 °F 3.2 °F 79% 29.95 in 1.2 mi SSE 12.7 mph - N/A Snow Light Snow
4:13 PM 8.6 °F -7.0 °F 3.2 °F 79% 29.93 in 5.0 mi SE 12.7 mph - N/A Snow Light Snow
4:33 PM 8.6 °F -7.0 °F 3.2 °F 79% 29.93 in 5.0 mi SE 12.7 mph - N/A Snow Light Snow
4:53 PM 8.6 °F -6.3 °F 5.0 °F 85% 29.92 in 7.0 mi SE 11.5 mph - N/A Snow Light Snow
5:13 PM 8.6 °F -6.3 °F 5.0 °F 85% 29.92 in 3.0 mi SE 11.5 mph - N/A Snow Light Snow
5:53 PM 8.6 °F -5.5 °F 5.0 °F 85% 29.92 in 10.0 mi ESE 10.4 mph - N/A   Overcast
6:13 PM 8.6 °F -6.3 °F 5.0 °F 85% 29.93 in 7.0 mi SE 11.5 mph - N/A Snow Light Snow
6:53 PM 8.6 °F -4.7 °F 6.8 °F 92% 29.94 in 10.0 mi SE 9.2 mph - N/A   Overcast
7:13 PM 10.4 °F 2.2 °F 6.8 °F 85% 29.95 in 10.0 mi SE 4.6 mph - N/A   Overcast
7:33 PM 10.4 °F - 6.8 °F 85% 29.96 in 10.0 mi Calm Calm - N/A   Overcast
8:13 PM 10.4 °F 4.0 °F 6.8 °F 85% 29.97 in 7.0 mi WNW 3.5 mph - N/A Snow Light Snow
8:33 PM 10.4 °F -2.4 °F 6.8 °F 85% 29.98 in 7.0 mi WNW 9.2 mph - N/A Snow Light Snow
8:53 PM 10.4 °F -4.8 °F 6.8 °F 85% 29.98 in 10.0 mi WNW 12.7 mph - N/A   Overcast
9:13 PM 10.4 °F -7.2 °F 8.6 °F 92% 29.98 in 10.0 mi NW 17.3 mph - N/A   Overcast
9:33 PM 12.2 °F -6.3 °F 8.6 °F 85% 29.99 in 7.0 mi NW 20.7 mph - N/A   Overcast
9:53 PM 12.2 °F -6.7 °F 8.6 °F 85% 30.00 in 4.0 mi NW 21.9 mph - N/A Snow Light Snow
10:13 PM 12.2 °F -7.5 °F 8.6 °F 85% 30.01 in 4.0 mi NW 24.2 mph 31.1 mph N/A Snow Light Snow
10:53 PM 10.4 °F -11.0 °F 6.8 °F 85% 30.02 in 3.0 mi NW 27.6 mph 35.7 mph N/A Snow Light Snow
11:13 PM 10.4 °F -9.9 °F 6.8 °F 85% 30.03 in 4.0 mi NW 24.2 mph 29.9 mph N/A Snow Light Snow
11:33 PM 10.4 °F -8.6 °F 6.8 °F 85% 30.02 in 7.0 mi NNW 20.7 mph 26.5 mph N/A   Mostly Cloudy
11:53 PM 10.4 °F -9.9 °F 5.0 °F 79% 30.04 in 7.0 mi NW 24.2 mph 28.8 mph N/A   Clear